Curtin, Australia

7:42 PM AWST on August 19, 2017 (GMT +0800)
Curtin

Weather History for YCIN - April, 2013

Change the Weather History Date:

Thursday, April 4, 2013

  Actual Average Record
Temperature  
Mean Temperature 78 °F -  
Max Temperature 82 °F - - ()
Min Temperature 74 °F - - ()
Cooling Degree Days 13    
Growing Degree Days 28 (Base 50)    
Moisture  
Dew Point 69 °F    
Average Humidity 74    
Maximum Humidity 83    
Minimum Humidity 51    
Precipitation  
Precipitation 0.00 in - - ()
Sea Level Pressure  
Sea Level Pressure 29.85 in    
Wind  
Wind Speed 7 mph ()    
Max Wind Speed 10 mph    
Max Gust Speed -    
T = Trace of Precipitation, MM = Missing Value Source: Averaged Metar Reports

Daily Weather History Graph

Daily Weather History Graph

Search for Another Location

Airport or City:

Trip Planner

Search our weather history database for the weather conditions in past years. The results will help you decide how hot, cold, wet, or windy it might be!

Date:

Astronomy

Apr. 04, 2013 Rise Set
Actual Time 5:51 AM AWST 5:43 PM AWST
Civil Twilight 5:29 AM AWST 6:05 PM AWST
Nautical Twilight 5:04 AM AWST 6:30 PM AWST
Astronomical Twilight 4:39 AM AWST 6:55 PM AWST
Moon No Moon Rise 1:09 PM AWST (4/4)
Length of Visible Light 12h 35m
Length of Day
11h 52m
Last Quarter, 39% of the Moon is Illuminated
Apr 4
Last Quarter
Apr 10
New
Apr 18
First Quarter
Apr 26
Full
May 2
Last Quarter

Hourly Weather History & Observations

Time (AWST) Temp. Heat Index Dew Point Humidity Pressure Visibility Wind Dir Wind Speed Gust Speed Precip Events Conditions
12:00 AM 75 °F - 69 °F 78% 29.85 in - ESE 9.2 mph - -  
12:00 AM 75.2 °F - 69.8 °F 83% 29.86 in - ESE 9.2 mph - N/A   Unknown
1:00 AM 75.2 °F - 69.8 °F 83% 29.86 in - ESE 8.1 mph - N/A   Unknown
2:00 AM 75.2 °F - 68.0 °F 78% 29.83 in - ESE 9.2 mph - N/A   Unknown
3:00 AM 74 °F - 69 °F 79% 29.82 in - East 8.1 mph - -  
3:00 AM 75.2 °F - 69.8 °F 83% 29.83 in - East 8.1 mph - N/A   Unknown
4:00 AM 75.2 °F - 69.8 °F 83% 29.83 in - East 8.1 mph - N/A   Unknown
5:00 AM 75.2 °F - 69.8 °F 83% 29.83 in - ESE 5.8 mph - N/A   Unknown
6:00 AM 75 °F - 69 °F 78% 29.84 in - ESE 8.1 mph - -  
6:00 AM 75.2 °F - 69.8 °F 83% 29.86 in - ESE 8.1 mph - N/A   Unknown
7:00 AM 77.0 °F - 69.8 °F 78% 29.86 in - East 8.1 mph - N/A   Unknown
8:00 AM 78.8 °F - 68.0 °F 69% 29.89 in - East 10.4 mph - N/A   Unknown
9:00 AM 80 °F - 67 °F 55% 29.89 in - East 10.4 mph - -  
9:00 AM 80.6 °F 82.7 °F 66.2 °F 61% 29.89 in - East 10.4 mph - N/A   Unknown
10:00 AM 78.8 °F - 68.0 °F 69% 29.89 in - East 6.9 mph - N/A   Unknown
11:00 AM 82.4 °F 84.6 °F 66.2 °F 58% 29.86 in - East 8.1 mph - N/A   Unknown
12:00 PM 82 °F - 67 °F 51% 29.82 in - East 5.8 mph - -  
12:00 PM 82.4 °F 84.6 °F 66.2 °F 58% 29.83 in - ENE 5.8 mph - N/A   Unknown
1:00 PM 78.8 °F - 68.0 °F 69% 29.80 in - NE 5.8 mph - N/A   Unknown
2:00 PM 77.0 °F - 69.8 °F 78% 29.80 in - NE 4.6 mph - N/A   Unknown
3:00 PM 78 °F - 70 °F 70% 29.81 in - NNE 2.3 mph - -  
3:00 PM 78.8 °F - 69.8 °F 74% 29.80 in - NNE 2.3 mph - N/A   Unknown
4:00 PM 78.8 °F - 69.8 °F 74% 29.83 in - ENE 4.6 mph - N/A   Unknown
5:00 PM 77.0 °F - 69.8 °F 78% 29.83 in - East 5.8 mph - N/A   Unknown
6:00 PM 76 °F - 69 °F 75% 29.85 in - East 8.1 mph - -  
6:00 PM 77.0 °F - 69.8 °F 78% 29.86 in - East 8.1 mph - N/A   Unknown
7:00 PM 75.2 °F - 69.8 °F 83% 29.86 in - ENE 5.8 mph - N/A   Unknown
8:00 PM 75.2 °F - 69.8 °F 83% 29.86 in - East 10.4 mph - N/A   Unknown
9:00 PM 76 °F - 68 °F 69% 29.88 in - East 9.2 mph - -  
9:00 PM 77.0 °F - 68.0 °F 74% 29.89 in - East 9.2 mph - N/A   Unknown
10:00 PM 75.2 °F - 68.0 °F 78% 29.89 in - East 10.4 mph - N/A   Unknown
11:00 PM 75.2 °F - 68.0 °F 78% 29.86 in - East 9.2 mph - N/A   Unknown